,,,PA_Meas_PMT16A,,PR_Meas_QMR101_102,,RH_Meas_QMH101,,SR_Meas_QMS101,,TA_Meas_QMH101,,GenWind,,GenWind,
date,time,status,PA,status,PR,status,RH,status,SR,status,TA,status,DirAvg,status,SpdAvg,
2014-06-21, 00:00:04,VALID,1011.03,VALID,0,INVALID,110.482,VALID,0.112112,VALID,25.8186,VALID,247,VALID,0.00117188,
2014-06-21, 00:01:04,VALID,1011.03,VALID,0,INVALID,110.49,VALID,0.112112,VALID,25.8166,VALID,247,VALID,0,
2014-06-21, 00:02:04,VALID,1011.03,VALID,0,INVALID,110.459,VALID,0.112112,VALID,25.8166,VALID,247,VALID,0,
2014-06-21, 00:03:04,VALID,1011.02,VALID,0,INVALID,110.467,VALID,0.112112,VALID,25.8186,VALID,247,VALID,0,
2014-06-21, 00:04:04,VALID,1011.02,VALID,0,INVALID,110.451,VALID,0,VALID,25.7971,VALID,247,VALID,0,
2014-06-21, 00:05:04,VALID,1011.01,VALID,0,INVALID,110.444,VALID,0.112112,VALID,25.7971,VALID,247,VALID,0,
2014-06-21, 00:06:04,VALID,1011,VALID,0,INVALID,110.436,VALID,0,VALID,25.8186,VALID,247,VALID,0,
2014-06-21, 00:07:04,VALID,1011.01,VALID,0,INVALID,110.436,VALID,0,VALID,25.7776,VALID,247,VALID,0,
2014-06-21, 00:08:04,VALID,1011,VALID,0,INVALID,110.474,VALID,0,VALID,25.7776,VALID,247,VALID,0,
2014-06-21, 00:09:04,VALID,1011.03,VALID,0,INVALID,110.436,VALID,0.112112,VALID,25.7776,VALID,247,VALID,0,
2014-06-21, 00:10:04,VALID,1011.02,VALID,0,INVALID,110.451,VALID,0.112112,VALID,25.7581,VALID,247,VALID,0,
2014-06-21, 00:11:04,VALID,1011,VALID,0,INVALID,110.467,VALID,0,VALID,25.7796,VALID,247,VALID,0,
2014-06-21, 00:12:04,VALID,1011,VALID,0,INVALID,110.459,VALID,0,VALID,25.7796,VALID,247,VALID,0,
2014-06-21, 00:13:04,VALID,1010.98,VALID,0,INVALID,110.451,VALID,0,VALID,25.7796,VALID,247,VALID,0.245703,
2014-06-21, 00:14:04,VALID,1010.98,VALID,0,INVALID,110.49,VALID,0,VALID,25.7387,VALID,247,VALID,0,
2014-06-21, 00:15:04,VALID,1010.99,VALID,0,INVALID,110.474,VALID,0,VALID,25.7796,VALID,247,VALID,0,
2014-06-21, 00:16:04,VALID,1010.98,VALID,0,INVALID,110.505,VALID,0.112112,VALID,25.7581,VALID,247,VALID,0,
2014-06-21, 00:17:04,VALID,1010.95,VALID,0,INVALID,110.49,VALID,0,VALID,25.7601,VALID,247,VALID,0,
2014-06-21, 00:18:04,VALID,1010.95,VALID,0,INVALID,110.49,VALID,0.112112,VALID,25.7387,VALID,247,VALID,0,
2014-06-21, 00:19:04,VALID,1010.97,VALID,0,INVALID,110.512,VALID,0,VALID,25.7406,VALID,247,VALID,0,
2014-06-21, 00:20:04,VALID,1010.92,VALID,0,INVALID,110.497,VALID,0,VALID,25.7406,VALID,247,VALID,0,
2014-06-21, 00:21:04,VALID,1010.92,VALID,0,INVALID,110.543,VALID,0,VALID,25.7192,VALID,247,VALID,0,
2014-06-21, 00:22:04,VALID,1010.93,VALID,0,INVALID,110.535,VALID,0,VALID,25.7406,VALID,247,VALID,0,
2014-06-21, 00:23:04,VALID,1010.92,VALID,0,INVALID,110.573,VALID,0,VALID,25.7406,VALID,247,VALID,0,
2014-06-21, 00:24:04,VALID,1010.92,VALID,0,INVALID,110.596,VALID,0,VALID,25.7601,VALID,247,VALID,0,
2014-06-21, 00:25:04,VALID,1010.9,VALID,0,INVALID,110.612,VALID,0.112112,VALID,25.7581,VALID,247,VALID,0,
2014-06-21, 00:26:04,VALID,1010.91,VALID,0,INVALID,110.612,VALID,0,VALID,25.7796,VALID,247,VALID,0,
2014-06-21, 00:27:04,VALID,1010.91,VALID,0,INVALID,110.589,VALID,0.112112,VALID,25.7776,VALID,247,VALID,0,
2014-06-21, 00:28:04,VALID,1010.88,VALID,0,INVALID,110.612,VALID,0.112112,VALID,25.7796,VALID,247,VALID,0,
2014-06-21, 00:29:04,VALID,1010.89,VALID,0,INVALID,110.589,VALID,0.112112,VALID,25.7796,VALID,247,VALID,0,
2014-06-21, 00:30:04,VALID,1010.89,VALID,0,INVALID,110.596,VALID,0.112112,VALID,25.7776,VALID,247,VALID,0,
2014-06-21, 00:31:04,VALID,1010.89,VALID,0,INVALID,110.566,VALID,0.112112,VALID,25.7581,VALID,247,VALID,0,
2014-06-21, 00:32:04,VALID,1010.88,VALID,0,INVALID,110.566,VALID,0.112112,VALID,25.7387,VALID,247,VALID,0,
2014-06-21, 00:33:04,VALID,1010.85,VALID,0,INVALID,110.589,VALID,0.112112,VALID,25.7601,VALID,247,VALID,0,
2014-06-21, 00:34:04,VALID,1010.85,VALID,0,INVALID,110.535,VALID,0.112112,VALID,25.7211,VALID,247,VALID,0,
2014-06-21, 00:35:04,VALID,1010.84,VALID,0,INVALID,110.589,VALID,0.112112,VALID,25.6997,VALID,247,VALID,0,
2014-06-21, 00:36:04,VALID,1010.8,VALID,0,INVALID,110.543,VALID,0.112112,VALID,25.7016,VALID,247,VALID,0,
2014-06-21, 00:37:04,VALID,1010.81,VALID,0,INVALID,110.558,VALID,0.112112,VALID,25.7016,VALID,247,VALID,0,
2014-06-21, 00:38:04,VALID,1010.77,VALID,0,INVALID,110.581,VALID,0.112112,VALID,25.7016,VALID,247,VALID,0,
2014-06-21, 00:39:04,VALID,1010.79,VALID,0,INVALID,110.627,VALID,0,VALID,25.6802,VALID,247,VALID,0,
2014-06-21, 00:40:04,VALID,1010.76,VALID,0,INVALID,110.604,VALID,0,VALID,25.7016,VALID,247,VALID,0,
2014-06-21, 00:41:04,VALID,1010.77,VALID,0,INVALID,110.619,VALID,0,VALID,25.7211,VALID,247,VALID,0,
2014-06-21, 00:42:04,VALID,1010.78,VALID,0,INVALID,110.65,VALID,0.112112,VALID,25.7406,VALID,247,VALID,0,
2014-06-21, 00:43:04,VALID,1010.75,VALID,0,INVALID,110.665,VALID,0.112112,VALID,25.7581,VALID,247,VALID,0,
2014-06-21, 00:44:04,VALID,1010.79,VALID,0,INVALID,110.665,VALID,0.112112,VALID,25.7991,VALID,247,VALID,0.107813,
2014-06-21, 00:45:04,VALID,1010.77,VALID,0,INVALID,110.688,VALID,0.112112,VALID,25.7776,VALID,247,VALID,0,
2014-06-21, 00:46:04,VALID,1010.75,VALID,0,INVALID,110.688,VALID,0.112112,VALID,25.8186,VALID,247,VALID,0,
2014-06-21, 00:47:04,VALID,1010.75,VALID,0,INVALID,110.718,VALID,0,VALID,25.8166,VALID,247,VALID,0.418359,
2014-06-21, 00:48:04,VALID,1010.75,VALID,0,INVALID,110.68,VALID,0,VALID,25.8381,VALID,247,VALID,0.389844,
2014-06-21, 00:49:04,VALID,1010.71,VALID,0,INVALID,110.673,VALID,0.112112,VALID,25.8166,VALID,247,VALID,0.424609,
2014-06-21, 00:50:04,VALID,1010.68,VALID,0,INVALID,110.65,VALID,0.112112,VALID,25.8771,VALID,247,VALID,0.373437,
2014-06-21, 00:51:04,VALID,1010.66,VALID,0,INVALID,110.573,VALID,0.112112,VALID,25.8556,VALID,247,VALID,0.122656,
2014-06-21, 00:52:04,VALID,1010.66,VALID,0,INVALID,110.573,VALID,0,VALID,25.8576,VALID,247,VALID,0.0625,
2014-06-21, 00:53:04,VALID,1010.61,VALID,0,INVALID,110.558,VALID,0.112112,VALID,25.8576,VALID,247,VALID,0.210547,
2014-06-21, 00:54:04,VALID,1010.57,VALID,0,INVALID,110.535,VALID,0,VALID,25.8576,VALID,247,VALID,0.233203,
2014-06-21, 00:55:04,VALID,1010.6,VALID,0,INVALID,110.535,VALID,0.112112,VALID,25.8771,VALID,247,VALID,0.309766,
2014-06-21, 00:56:04,VALID,1010.58,VALID,0,INVALID,110.528,VALID,0,VALID,25.8556,VALID,247,VALID,0.0273438,
2014-06-21, 00:57:04,VALID,1010.53,VALID,0,INVALID,110.505,VALID,0,VALID,25.8771,VALID,247,VALID,0,
2014-06-21, 00:58:04,VALID,1010.56,VALID,0,INVALID,110.482,VALID,0.112112,VALID,25.8556,VALID,247,VALID,0,
2014-06-21, 00:59:04,VALID,1010.52,VALID,0,INVALID,110.451,VALID,0.112112,VALID,25.8576,VALID,247,VALID,0,
2014-06-21, 01:00:04,VALID,1010.49,VALID,0,INVALID,110.421,VALID,0,VALID,25.8361,VALID,247,VALID,0,
2014-06-21, 01:01:04,VALID,1010.47,VALID,0,INVALID,110.451,VALID,0,VALID,25.8381,VALID,247,VALID,0,
2014-06-21, 01:02:04,VALID,1010.47,VALID,0,INVALID,110.444,VALID,0.112112,VALID,25.8166,VALID,247,VALID,0,
2014-06-21, 01:03:04,VALID,1010.44,VALID,0,INVALID,110.451,VALID,0,VALID,25.8381,VALID,247,VALID,0,
2014-06-21, 01:04:04,VALID,1010.44,VALID,0,INVALID,110.459,VALID,0.112112,VALID,25.8166,VALID,247,VALID,0,
2014-06-21, 01:05:04,VALID,1010.42,VALID,0,INVALID,110.474,VALID,0,VALID,25.7971,VALID,247,VALID,0,
2014-06-21, 01:06:04,VALID,1010.4,VALID,0,INVALID,110.467,VALID,0.112112,VALID,25.7776,VALID,247,VALID,0,
2014-06-21, 01:07:04,VALID,1010.4,VALID,0,INVALID,110.482,VALID,0.112112,VALID,25.7776,VALID,247,VALID,0,
2014-06-21, 01:08:04,VALID,1010.37,VALID,0,INVALID,110.505,VALID,0,VALID,25.7581,VALID,247,VALID,0,
2014-06-21, 01:09:04,VALID,1010.4,VALID,0,INVALID,110.482,VALID,0,VALID,25.7387,VALID,247,VALID,0,
2014-06-21, 01:10:04,VALID,1010.36,VALID,0,INVALID,110.505,VALID,0.112112,VALID,25.7601,VALID,247,VALID,0,
2014-06-21, 01:11:04,VALID,1010.38,VALID,0,INVALID,110.528,VALID,0.112112,VALID,25.7387,VALID,247,VALID,0,
2014-06-21, 01:12:04,VALID,1010.37,VALID,0,INVALID,110.551,VALID,0,VALID,25.7387,VALID,247,VALID,0,
2014-06-21, 01:13:04,VALID,1010.36,VALID,0,INVALID,110.543,VALID,0.112112,VALID,25.7406,VALID,247,VALID,0.120312,
2014-06-21, 01:14:04,VALID,1010.37,VALID,0,INVALID,110.573,VALID,0.112112,VALID,25.7387,VALID,247,VALID,0.365625,
2014-06-21, 01:15:04,VALID,1010.33,VALID,0,INVALID,110.604,VALID,0.112112,VALID,25.7387,VALID,247,VALID,0.321094,
2014-06-21, 01:16:04,VALID,1010.32,VALID,0,INVALID,110.627,VALID,0.112112,VALID,25.7796,VALID,247,VALID,0.426172,
2014-06-21, 01:17:04,VALID,1010.32,VALID,0,INVALID,110.589,VALID,0.112112,VALID,25.7796,VALID,247,VALID,0.330469,
2014-06-21, 01:18:04,VALID,1010.28,VALID,0,INVALID,110.604,VALID,0.112112,VALID,25.7991,VALID,247,VALID,0.247266,
2014-06-21, 01:19:04,VALID,1010.28,VALID,0,INVALID,110.612,VALID,0,VALID,25.7991,VALID,247,VALID,0.314844,
2014-06-21, 01:20:04,VALID,1010.24,VALID,0,INVALID,110.596,VALID,0.112112,VALID,25.8186,VALID,247,VALID,0.351953,
2014-06-21, 01:21:04,VALID,1010.2,VALID,0,INVALID,110.604,VALID,0,VALID,25.8381,VALID,247,VALID,0.234375,
2014-06-21, 01:22:04,VALID,1010.21,VALID,0,INVALID,110.596,VALID,0,VALID,25.8381,VALID,247,VALID,0.229687,
2014-06-21, 01:23:04,VALID,1010.2,VALID,0,INVALID,110.573,VALID,0.112112,VALID,25.8576,VALID,247,VALID,0.223828,
2014-06-21, 01:24:04,VALID,1010.18,VALID,0,INVALID,110.558,VALID,0,VALID,25.8576,VALID,247,VALID,0.285937,
2014-06-21, 01:25:04,VALID,1010.19,VALID,0,INVALID,110.551,VALID,0,VALID,25.8771,VALID,247,VALID,0.021875,
2014-06-21, 01:26:04,VALID,1010.15,VALID,0,INVALID,110.535,VALID,0,VALID,25.8556,VALID,247,VALID,0.0152344,
2014-06-21, 01:27:04,VALID,1010.13,VALID,0,INVALID,110.52,VALID,0.112112,VALID,25.8966,VALID,247,VALID,0,
2014-06-21, 01:28:04,VALID,1010.13,VALID,0,INVALID,110.459,VALID,0,VALID,25.8966,VALID,247,VALID,0,
2014-06-21, 01:29:04,VALID,1010.1,VALID,0,INVALID,110.413,VALID,0,VALID,25.8966,VALID,247,VALID,0,
2014-06-21, 01:30:04,VALID,1010.1,VALID,0,INVALID,110.421,VALID,0,VALID,25.8966,VALID,247,VALID,0,
2014-06-21, 01:31:04,VALID,1010.1,VALID,0,INVALID,110.429,VALID,0,VALID,25.8966,VALID,247,VALID,0,
2014-06-21, 01:32:04,VALID,1010.09,VALID,0,INVALID,110.413,VALID,0,VALID,25.8966,VALID,247,VALID,0,
2014-06-21, 01:33:04,VALID,1010.06,VALID,0,INVALID,110.383,VALID,0,VALID,25.8966,VALID,247,VALID,0,
2014-06-21, 01:34:04,VALID,1010.05,VALID,0,INVALID,110.421,VALID,0.112112,VALID,25.8966,VALID,247,VALID,0.171875,
2014-06-21, 01:35:04,VALID,1010.05,VALID,0,INVALID,110.421,VALID,0,VALID,25.9161,VALID,247,VALID,0,
2014-06-21, 01:36:04,VALID,1010.02,VALID,0,INVALID,110.413,VALID,0,VALID,25.8751,VALID,247,VALID,0,
2014-06-21, 01:37:04,VALID,1010.01,VALID,0,INVALID,110.413,VALID,0,VALID,25.8966,VALID,247,VALID,0,
2014-06-21, 01:38:04,VALID,1010.02,VALID,0,INVALID,110.375,VALID,0.112112,VALID,25.8751,VALID,247,VALID,0,
2014-06-21, 01:39:04,VALID,1010,VALID,0,INVALID,110.383,VALID,0.112112,VALID,25.8556,VALID,247,VALID,0,
2014-06-21, 01:40:04,VALID,1010,VALID,0,INVALID,110.383,VALID,0,VALID,25.8576,VALID,247,VALID,0,
2014-06-21, 01:41:04,VALID,1010,VALID,0,INVALID,110.383,VALID,0,VALID,25.8166,VALID,247,VALID,0,
2014-06-21, 01:42:04,VALID,1009.97,VALID,0,INVALID,110.383,VALID,0.112112,VALID,25.8381,VALID,247,VALID,0,
2014-06-21, 01:43:04,VALID,1009.98,VALID,0,INVALID,110.421,VALID,0,VALID,25.8186,VALID,247,VALID,0,
2014-06-21, 01:44:04,VALID,1009.99,VALID,0,INVALID,110.406,VALID,0.112112,VALID,25.7581,VALID,247,VALID,0,
2014-06-21, 01:45:04,VALID,1010,VALID,0,INVALID,110.436,VALID,0,VALID,25.7601,VALID,247,VALID,0.0367187,
2014-06-21, 01:46:04,VALID,1009.98,VALID,0,INVALID,110.444,VALID,0,VALID,25.7406,VALID,247,VALID,0.321875,
2014-06-21, 01:47:04,VALID,1009.98,VALID,0,INVALID,110.474,VALID,0,VALID,25.7211,VALID,247,VALID,0.285156,
2014-06-21, 01:48:04,VALID,1009.98,VALID,0,INVALID,110.497,VALID,0.112112,VALID,25.7016,VALID,247,VALID,0.207422,
2014-06-21, 01:49:04,VALID,1009.99,VALID,0,INVALID,110.512,VALID,0,VALID,25.6802,VALID,247,VALID,0.244922,
2014-06-21, 01:50:04,VALID,1009.97,VALID,0,INVALID,110.589,VALID,0,VALID,25.7016,VALID,247,VALID,0.330078,
2014-06-21, 01:51:04,VALID,1010,VALID,0,INVALID,110.642,VALID,0.112112,VALID,25.6802,VALID,247,VALID,0.244922,
2014-06-21, 01:52:04,VALID,1009.97,VALID,0,INVALID,110.65,VALID,0.112112,VALID,25.7016,VALID,247,VALID,0.314063,
2014-06-21, 01:53:04,VALID,1009.98,VALID,0,INVALID,110.673,VALID,0,VALID,25.7016,VALID,247,VALID,0.310937,
2014-06-21, 01:54:04,VALID,1009.98,VALID,0,INVALID,110.65,VALID,0.112112,VALID,25.6607,VALID,247,VALID,0.121875,
2014-06-21, 01:55:04,VALID,1009.97,VALID,0,INVALID,110.657,VALID,0.112112,VALID,25.6607,VALID,247,VALID,0.133594,
2014-06-21, 01:56:04,VALID,1009.99,VALID,0,INVALID,110.673,VALID,0.112112,VALID,25.6626,VALID,247,VALID,0.0910156,
2014-06-21, 01:57:04,VALID,1009.99,VALID,0,INVALID,110.68,VALID,0.112112,VALID,25.6431,VALID,247,VALID,0,
2014-06-21, 01:58:04,VALID,1009.99,VALID,0,INVALID,110.703,VALID,0.112112,VALID,25.6431,VALID,247,VALID,0,
2014-06-21, 01:59:04,VALID,1009.98,VALID,0,INVALID,110.726,VALID,0.112112,VALID,25.6217,VALID,247,VALID,0,
2014-06-21, 02:00:04,VALID,1009.98,VALID,0,INVALID,110.711,VALID,0.112112,VALID,25.6022,VALID,247,VALID,0,
2014-06-21, 02:01:04,VALID,1009.96,VALID,0,INVALID,110.726,VALID,0.112112,VALID,25.6022,VALID,247,VALID,0,
2014-06-21, 02:02:04,VALID,1009.96,VALID,0,INVALID,110.734,VALID,0.112112,VALID,25.5632,VALID,247,VALID,0,
2014-06-21, 02:03:04,VALID,1009.94,VALID,0,INVALID,110.756,VALID,0,VALID,25.6041,VALID,247,VALID,0,
2014-06-21, 02:04:04,VALID,1009.95,VALID,0,INVALID,110.741,VALID,0.112112,VALID,25.5827,VALID,247,VALID,0,
2014-06-21, 02:05:04,VALID,1009.93,VALID,0,INVALID,110.756,VALID,0,VALID,25.5846,VALID,247,VALID,0,
2014-06-21, 02:06:04,VALID,1009.91,VALID,0,INVALID,110.772,VALID,0,VALID,25.6041,VALID,247,VALID,0,
2014-06-21, 02:07:04,VALID,1009.91,VALID,0,INVALID,110.764,VALID,0,VALID,25.5846,VALID,247,VALID,0,
2014-06-21, 02:08:04,VALID,1009.94,VALID,0,INVALID,110.764,VALID,0,VALID,25.5846,VALID,247,VALID,0,
2014-06-21, 02:09:04,VALID,1009.92,VALID,0,INVALID,110.779,VALID,0.112112,VALID,25.5632,VALID,247,VALID,0,
2014-06-21, 02:10:04,VALID,1009.9,VALID,0,INVALID,110.787,VALID,0,VALID,25.5846,VALID,247,VALID,0,
2014-06-21, 02:11:04,VALID,1009.93,VALID,0,INVALID,110.795,VALID,0,VALID,25.5651,VALID,247,VALID,0,
2014-06-21, 02:12:04,VALID,1009.93,VALID,0,INVALID,110.795,VALID,0,VALID,25.5437,VALID,247,VALID,0,
2014-06-21, 02:13:04,VALID,1009.95,VALID,0,INVALID,110.772,VALID,0,VALID,25.5651,VALID,247,VALID,0,
2014-06-21, 02:14:04,VALID,1009.94,VALID,0,INVALID,110.787,VALID,0,VALID,25.5456,VALID,247,VALID,0,
2014-06-21, 02:15:04,VALID,1009.93,VALID,0,INVALID,110.817,VALID,0.112112,VALID,25.5456,VALID,247,VALID,0.0523437,
2014-06-21, 02:16:04,VALID,1009.93,VALID,0,INVALID,110.795,VALID,0.112112,VALID,25.5047,VALID,247,VALID,0.201562,
2014-06-21, 02:17:04,VALID,1009.92,VALID,0,INVALID,110.81,VALID,0.112112,VALID,25.5066,VALID,247,VALID,0.346875,
2014-06-21, 02:18:04,VALID,1009.93,VALID,0,INVALID,110.833,VALID,0.112112,VALID,25.5066,VALID,247,VALID,0.333594,
2014-06-21, 02:19:04,VALID,1009.92,VALID,0,INVALID,110.802,VALID,0.112112,VALID,25.4852,VALID,247,VALID,0.183203,
2014-06-21, 02:20:04,VALID,1009.94,VALID,0,INVALID,110.817,VALID,0.112112,VALID,25.4462,VALID,247,VALID,0,
2014-06-21, 02:21:04,VALID,1009.93,VALID,0,INVALID,110.817,VALID,0,VALID,25.4677,VALID,247,VALID,0,
2014-06-21, 02:22:04,VALID,1009.94,VALID,0,INVALID,110.81,VALID,0.112112,VALID,25.4462,VALID,247,VALID,0.0515625,
2014-06-21, 02:23:04,VALID,1009.95,VALID,0,INVALID,110.825,VALID,0.112112,VALID,25.4267,VALID,247,VALID,0.167187,
2014-06-21, 02:24:04,VALID,1009.96,VALID,0,INVALID,110.81,VALID,0,VALID,25.4482,VALID,247,VALID,0.487109,
2014-06-21, 02:25:04,VALID,1009.96,VALID,0,INVALID,110.817,VALID,0,VALID,25.4482,VALID,247,VALID,0.203516,
2014-06-21, 02:26:04,VALID,1009.97,VALID,0,INVALID,110.802,VALID,0.112112,VALID,25.4287,VALID,247,VALID,0.221094,
2014-06-21, 02:27:04,VALID,1009.99,VALID,0,INVALID,110.817,VALID,0,VALID,25.4501,VALID,247,VALID,0.121875,
2014-06-21, 02:28:04,VALID,1009.98,VALID,0,INVALID,110.825,VALID,0,VALID,25.4287,VALID,247,VALID,0.209766,
2014-06-21, 02:29:04,VALID,1009.98,VALID,0,INVALID,110.795,VALID,0,VALID,25.4287,VALID,247,VALID,0.30625,
2014-06-21, 02:30:04,VALID,1009.97,VALID,0,INVALID,110.825,VALID,0,VALID,25.4287,VALID,247,VALID,0,
2014-06-21, 02:31:04,VALID,1009.97,VALID,0,INVALID,110.833,VALID,0,VALID,25.4092,VALID,247,VALID,0.0753906,
2014-06-21, 02:32:04,VALID,1009.93,VALID,0,INVALID,110.833,VALID,0,VALID,25.4306,VALID,247,VALID,0.0277344,
2014-06-21, 02:33:04,VALID,1009.96,VALID,0,INVALID,110.856,VALID,0,VALID,25.4092,VALID,247,VALID,0.243359,
2014-06-21, 02:34:04,VALID,1009.9,VALID,0,INVALID,110.825,VALID,0,VALID,25.3683,VALID,247,VALID,0.269141,
2014-06-21, 02:35:04,VALID,1009.89,VALID,0,INVALID,110.848,VALID,0,VALID,25.3488,VALID,247,VALID,0.207422,
2014-06-21, 02:36:04,VALID,1009.88,VALID,0,INVALID,110.84,VALID,0,VALID,25.3897,VALID,247,VALID,0.220313,
2014-06-21, 02:37:04,VALID,1009.85,VALID,0,INVALID,110.84,VALID,0,VALID,25.3683,VALID,247,VALID,0.334375,
2014-06-21, 02:38:04,VALID,1009.88,VALID,0,INVALID,110.817,VALID,0,VALID,25.3702,VALID,247,VALID,0.44375,
2014-06-21, 02:39:04,VALID,1009.88,VALID,0,INVALID,110.848,VALID,0,VALID,25.3507,VALID,247,VALID,0.426172,
2014-06-21, 02:40:04,VALID,1009.87,VALID,0,INVALID,110.817,VALID,0,VALID,25.3507,VALID,247,VALID,0.3625,
2014-06-21, 02:41:04,VALID,1009.85,VALID,0,INVALID,110.84,VALID,0,VALID,25.3507,VALID,247,VALID,0.401172,
2014-06-21, 02:42:04,VALID,1009.85,VALID,0,INVALID,110.871,VALID,0,VALID,25.3507,VALID,247,VALID,0.273828,
2014-06-21, 02:43:04,VALID,1009.85,VALID,0,INVALID,110.825,VALID,0,VALID,25.3526,VALID,247,VALID,0,
2014-06-21, 02:44:04,VALID,1009.84,VALID,0,INVALID,110.825,VALID,0,VALID,25.3117,VALID,247,VALID,0,
2014-06-21, 02:45:04,VALID,1009.82,VALID,0,INVALID,110.84,VALID,0,VALID,25.3117,VALID,247,VALID,0.2,
2014-06-21, 02:46:04,VALID,1009.82,VALID,0,INVALID,110.825,VALID,0,VALID,25.3312,VALID,247,VALID,0,
2014-06-21, 02:47:04,VALID,1009.79,VALID,0,INVALID,110.833,VALID,0,VALID,25.2903,VALID,247,VALID,0.228125,
2014-06-21, 02:48:04,VALID,1009.8,VALID,0,INVALID,110.84,VALID,0,VALID,25.3117,VALID,247,VALID,0.173828,
2014-06-21, 02:49:04,VALID,1009.82,VALID,0,INVALID,110.833,VALID,0.112112,VALID,25.2903,VALID,247,VALID,0,
2014-06-21, 02:50:04,VALID,1009.79,VALID,0,INVALID,110.863,VALID,0,VALID,25.2922,VALID,247,VALID,0,
2014-06-21, 02:51:04,VALID,1009.82,VALID,0,INVALID,110.84,VALID,0,VALID,25.3117,VALID,247,VALID,0,
2014-06-21, 02:52:04,VALID,1009.81,VALID,0,INVALID,110.833,VALID,0,VALID,25.3117,VALID,247,VALID,0,
2014-06-21, 02:53:04,VALID,1009.82,VALID,0,INVALID,110.856,VALID,0.112112,VALID,25.3331,VALID,247,VALID,0,
2014-06-21, 02:54:04,VALID,1009.82,VALID,0,INVALID,110.825,VALID,0,VALID,25.3117,VALID,247,VALID,0,
2014-06-21, 02:55:04,VALID,1009.84,VALID,0,INVALID,110.825,VALID,0,VALID,25.3117,VALID,247,VALID,0,
2014-06-21, 02:56:04,VALID,1009.82,VALID,0,INVALID,110.856,VALID,0,VALID,25.3312,VALID,247,VALID,0,
2014-06-21, 02:57:04,VALID,1009.81,VALID,0,INVALID,110.84,VALID,0,VALID,25.3526,VALID,247,VALID,0,
2014-06-21, 02:58:04,VALID,1009.81,VALID,0,INVALID,110.871,VALID,0,VALID,25.3117,VALID,247,VALID,0,
2014-06-21, 02:59:04,VALID,1009.81,VALID,0,INVALID,110.856,VALID,0,VALID,25.3117,VALID,247,VALID,0,
2014-06-21, 03:00:04,VALID,1009.83,VALID,0,INVALID,110.871,VALID,0,VALID,25.2922,VALID,247,VALID,0,
2014-06-21, 03:01:04,VALID,1009.78,VALID,0,INVALID,110.863,VALID,0,VALID,25.2922,VALID,247,VALID,0,
2014-06-21, 03:02:04,VALID,1009.77,VALID,0,INVALID,110.833,VALID,0.112112,VALID,25.2727,VALID,247,VALID,0,
2014-06-21, 03:03:04,VALID,1009.78,VALID,0,INVALID,110.848,VALID,0,VALID,25.2922,VALID,247,VALID,0,
2014-06-21, 03:04:04,VALID,1009.74,VALID,0,INVALID,110.848,VALID,0,VALID,25.2922,VALID,247,VALID,0,
2014-06-21, 03:05:04,VALID,1009.72,VALID,0,INVALID,110.848,VALID,0,VALID,25.2922,VALID,247,VALID,0,
2014-06-21, 03:06:04,VALID,1009.68,VALID,0,INVALID,110.871,VALID,0,VALID,25.2727,VALID,247,VALID,0,
2014-06-21, 03:07:04,VALID,1009.68,VALID,0,INVALID,110.833,VALID,0,VALID,25.2727,VALID,247,VALID,0,
2014-06-21, 03:08:04,VALID,1009.65,VALID,0,INVALID,110.856,VALID,0.112112,VALID,25.2727,VALID,247,VALID,0,
2014-06-21, 03:09:04,VALID,1009.62,VALID,0,INVALID,110.856,VALID,0,VALID,25.2532,VALID,247,VALID,0,
2014-06-21, 03:10:04,VALID,1009.61,VALID,0,INVALID,110.871,VALID,0,VALID,25.2532,VALID,247,VALID,0,
2014-06-21, 03:11:04,VALID,1009.62,VALID,0,INVALID,110.871,VALID,0,VALID,25.2532,VALID,247,VALID,0,
2014-06-21, 03:12:04,VALID,1009.6,VALID,0,INVALID,110.871,VALID,0,VALID,25.2142,VALID,247,VALID,0,
2014-06-21, 03:13:04,VALID,1009.58,VALID,0,INVALID,110.863,VALID,0,VALID,25.2142,VALID,247,VALID,0,
2014-06-21, 03:14:04,VALID,1009.57,VALID,0,INVALID,110.871,VALID,0.112112,VALID,25.1947,VALID,247,VALID,0,
2014-06-21, 03:15:04,VALID,1009.54,VALID,0,INVALID,110.894,VALID,0,VALID,25.1752,VALID,247,VALID,0,
2014-06-21, 03:16:04,VALID,1009.53,VALID,0,INVALID,110.871,VALID,0,VALID,25.1752,VALID,247,VALID,0,
2014-06-21, 03:17:04,VALID,1009.51,VALID,0,INVALID,110.878,VALID,0,VALID,25.1557,VALID,247,VALID,0,
2014-06-21, 03:18:04,VALID,1009.52,VALID,0,INVALID,110.878,VALID,0,VALID,25.1167,VALID,247,VALID,0,
2014-06-21, 03:19:04,VALID,1009.52,VALID,0,INVALID,110.878,VALID,0,VALID,25.1362,VALID,247,VALID,0,
2014-06-21, 03:20:04,VALID,1009.5,VALID,0,INVALID,110.878,VALID,0,VALID,25.1167,VALID,247,VALID,0,
2014-06-21, 03:21:04,VALID,1009.48,VALID,0,INVALID,110.848,VALID,0,VALID,25.1362,VALID,247,VALID,0,
2014-06-21, 03:22:04,VALID,1009.46,VALID,0,INVALID,110.863,VALID,0,VALID,25.1362,VALID,247,VALID,0,
2014-06-21, 03:23:04,VALID,1009.45,VALID,0,INVALID,110.871,VALID,0,VALID,25.1362,VALID,247,VALID,0,
2014-06-21, 03:24:04,VALID,1009.44,VALID,0,INVALID,110.84,VALID,0,VALID,25.1362,VALID,247,VALID,0,
2014-06-21, 03:25:04,VALID,1009.43,VALID,0,INVALID,110.833,VALID,0,VALID,25.1362,VALID,247,VALID,0,
2014-06-21, 03:26:04,VALID,1009.42,VALID,0,INVALID,110.856,VALID,0.112112,VALID,25.1167,VALID,247,VALID,0,
2014-06-21, 03:27:04,VALID,1009.43,VALID,0,INVALID,110.871,VALID,0,VALID,25.1167,VALID,247,VALID,0.0257812,
2014-06-21, 03:28:04,VALID,1009.41,VALID,0,INVALID,110.848,VALID,0.112112,VALID,25.0954,VALID,247,VALID,0.0878906,
2014-06-21, 03:29:04,VALID,1009.4,VALID,0,INVALID,110.84,VALID,0,VALID,25.1167,VALID,247,VALID,0.363281,
2014-06-21, 03:30:04,VALID,1009.42,VALID,0,INVALID,110.878,VALID,0.112112,VALID,25.0954,VALID,247,VALID,0.291406,
2014-06-21, 03:31:04,VALID,1009.4,VALID,0,INVALID,110.894,VALID,0.112112,VALID,25.0973,VALID,247,VALID,0.203516,
2014-06-21, 03:32:04,VALID,1009.41,VALID,0,INVALID,110.878,VALID,0.112112,VALID,25.0973,VALID,247,VALID,0.415625,
2014-06-21, 03:33:04,VALID,1009.42,VALID,0,INVALID,110.84,VALID,0,VALID,25.0973,VALID,247,VALID,0.375,
2014-06-21, 03:34:04,VALID,1009.47,VALID,0,INVALID,110.848,VALID,0.112112,VALID,25.0973,VALID,218,VALID,0.772266,
2014-06-21, 03:35:04,VALID,1009.48,VALID,0,INVALID,110.848,VALID,0.112112,VALID,25.0759,VALID,197,VALID,0.388672,
2014-06-21, 03:36:04,VALID,1009.48,VALID,0,INVALID,110.894,VALID,0.112112,VALID,25.0973,VALID,197,VALID,0.422266,
2014-06-21, 03:37:04,VALID,1009.51,VALID,0,INVALID,110.878,VALID,0,VALID,25.0973,VALID,197,VALID,0,
2014-06-21, 03:38:04,VALID,1009.52,VALID,0,INVALID,110.886,VALID,0.112112,VALID,25.0564,VALID,197,VALID,0.614062,
2014-06-21, 03:39:04,VALID,1009.52,VALID,0,INVALID,110.886,VALID,0,VALID,25.0778,VALID,197,VALID,0.199609,
2014-06-21, 03:40:04,VALID,1009.54,VALID,0,INVALID,110.901,VALID,0.112112,VALID,25.0564,VALID,197,VALID,0.127734,
2014-06-21, 03:41:04,VALID,1009.53,VALID,0,INVALID,110.871,VALID,0,VALID,25.0564,VALID,197,VALID,0.396875,
2014-06-21, 03:42:04,VALID,1009.54,VALID,0,INVALID,110.878,VALID,0.112112,VALID,25.0778,VALID,197,VALID,0.294531,
2014-06-21, 03:43:04,VALID,1009.52,VALID,0,INVALID,110.894,VALID,0.112112,VALID,25.0564,VALID,197,VALID,0.449609,